• In Austria
  • List of Countries
  • For 7 days
  • Water Temperature
  • Satellite Maps
  • Weather Map
  • News
  • Weather Widgets
  • user-avatar
    Login

    Hourly Weather Trzebinia

    Today, 19 April, Thursday

    Time Temperature Precipitation Wind Pressure Humidity
    00:00 +11°C° 0 mm 1 mps 741 mmHg 70%
    01:00 +11°C° 0 mm 1 mps 741 mmHg 73%
    02:00 +11°C° 0 mm 1 mps 741 mmHg 74%
    03:00 +10°C° 0 mm 2 mps 741 mmHg 75%
    04:00 +9°C° 0 mm 2 mps 740 mmHg 77%
    05:00 +10°C° 0 mm 2 mps 740 mmHg 74%
    06:00 +13°C° 0 mm 2 mps 740 mmHg 72%
    07:00 +14°C° 0 mm 2 mps 740 mmHg 69%
    08:00 +16°C° 0 mm 3 mps 740 mmHg 65%
    09:00 +17°C° 0 mm 3 mps 740 mmHg 60%
    10:00 +19°C° 0 mm 4 mps 740 mmHg 56%
    11:00 +20°C° 0 mm 4 mps 740 mmHg 52%
    12:00 +21°C° 0 mm 4 mps 740 mmHg 49%
    13:00 +22°C° 0 mm 5 mps 739 mmHg 46%
    14:00 +21°C° 0 mm 5 mps 739 mmHg 47%
    15:00 +21°C° 0 mm 5 mps 739 mmHg 48%
    16:00 +21°C° 0 mm 5 mps 739 mmHg 49%
    17:00 +19°C° 0 mm 4 mps 739 mmHg 56%
    18:00 +18°C° 0 mm 4 mps 738 mmHg 63%
    19:00 +16°C° 0 mm 3 mps 738 mmHg 69%
    20:00 +14°C° 0 mm 3 mps 738 mmHg 72%
    21:00 +14°C° 0 mm 2 mps 739 mmHg 76%
    22:00 +13°C° 0 mm 2 mps 739 mmHg 79%
    23:00 +12°C° 0 mm 2 mps 739 mmHg 79%

    Tomorrow, 20 April, Friday

    Time Temperature Precipitation Wind Pressure Humidity
    00:00 +10°C° 0 mm 2 mps 739 mmHg 79%
    01:00 +11°C° 0 mm 1 mps 739 mmHg 80%
    02:00 +10°C° 0 mm 1 mps 739 mmHg 80%
    03:00 +9°C° 0 mm 1 mps 739 mmHg 81%
    04:00 +9°C° 0 mm 1 mps 739 mmHg 82%
    05:00 +10°C° 0 mm 1 mps 739 mmHg 76%
    06:00 +11°C° 0 mm 1 mps 739 mmHg 70%
    07:00 +12°C° 0 mm 1 mps 739 mmHg 64%
    08:00 +14°C° 0 mm 1 mps 739 mmHg 56%
    09:00 +15°C° 0 mm 1 mps 739 mmHg 48%
    10:00 +17°C° 0 mm 2 mps 739 mmHg 40%
    11:00 +18°C° 0 mm 2 mps 739 mmHg 37%
    12:00 +19°C° 0 mm 2 mps 739 mmHg 35%
    13:00 +20°C° 0 mm 2 mps 739 mmHg 32%
    14:00 +20°C° 0 mm 2 mps 738 mmHg 32%
    15:00 +20°C° 0 mm 2 mps 738 mmHg 33%
    16:00 +21°C° 0 mm 1 mps 738 mmHg 33%
    17:00 +20°C° 0 mm 1 mps 737 mmHg 39%
    18:00 +18°C° 0 mm 1 mps 737 mmHg 44%
    19:00 +15°C° 0 mm 1 mps 737 mmHg 49%
    20:00 +14°C° 0 mm 1 mps 737 mmHg 52%
    21:00 +13°C° 0 mm 2 mps 736 mmHg 54%
    22:00 +13°C° 0 mm 2 mps 736 mmHg 57%
    23:00 +12°C° 0 mm 2 mps 736 mmHg 57%

    Day after tomorrow, 21 April, Saturday

    Time Temperature Precipitation Wind Pressure Humidity
    00:00 +12°C° 0 mm 2 mps 735 mmHg 58%
    01:00 +12°C° 0 mm 2 mps 735 mmHg 58%
    02:00 +10°C° 0 mm 2 mps 735 mmHg 58%
    03:00 +10°C° 0 mm 2 mps 734 mmHg 58%
    04:00 +10°C° 0 mm 2 mps 734 mmHg 58%
    05:00 +11°C° 0 mm 3 mps 734 mmHg 57%
    06:00 +13°C° 0 mm 4 mps 734 mmHg 56%
    07:00 +14°C° 0 mm 4 mps 734 mmHg 55%
    08:00 +17°C° 0 mm 4 mps 734 mmHg 52%
    09:00 +19°C° 0 mm 5 mps 734 mmHg 48%
    10:00 +21°C° 0 mm 5 mps 734 mmHg 44%
    11:00 +22°C° 0 mm 5 mps 733 mmHg 43%
    12:00 +23°C° 0 mm 5 mps 733 mmHg 42%
    13:00 +25°C° 0 mm 5 mps 733 mmHg 41%
    14:00 +25°C° 0.1 mm 5 mps 732 mmHg 43%
    15:00 +25°C° 0.1 mm 5 mps 732 mmHg 46%
    16:00 +23°C° 0.1 mm 5 mps 732 mmHg 48%
    17:00 +21°C° 0.1 mm 4 mps 732 mmHg 55%
    18:00 +19°C° 0.1 mm 3 mps 732 mmHg 62%
    19:00 +18°C° 0.1 mm 2 mps 732 mmHg 68%
    20:00 +17°C° 0 mm 2 mps 732 mmHg 70%
    21:00 +16°C° 0 mm 2 mps 732 mmHg 71%
    22:00 +15°C° 0 mm 1 mps 732 mmHg 72%
    23:00 +14°C° 0 mm 1 mps 732 mmHg 73%

    22 April, Sunday

    Time Temperature Precipitation Wind Pressure Humidity
    00:00 +13°C° 0 mm 1 mps 732 mmHg 73%
    01:00 +12°C° 0 mm 1 mps 732 mmHg 74%
    02:00 +11°C° 0 mm 1 mps 732 mmHg 73%
    03:00 +11°C° 0 mm 1 mps 732 mmHg 73%
    04:00 +10°C° 0 mm 1 mps 732 mmHg 73%
    05:00 +11°C° 0 mm 1 mps 732 mmHg 68%
    06:00 +12°C° 0 mm 1 mps 732 mmHg 64%
    07:00 +13°C° 0 mm 1 mps 732 mmHg 59%
    08:00 +15°C° 0 mm 1 mps 732 mmHg 53%
    09:00 +16°C° 0 mm 2 mps 732 mmHg 46%
    10:00 +18°C° 0 mm 2 mps 732 mmHg 40%
    11:00 +19°C° 0 mm 2 mps 732 mmHg 37%
    12:00 +20°C° 0 mm 2 mps 732 mmHg 35%
    13:00 +21°C° 0 mm 2 mps 731 mmHg 33%
    14:00 +21°C° 0 mm 2 mps 731 mmHg 33%
    15:00 +21°C° 0 mm 2 mps 730 mmHg 33%
    16:00 +21°C° 0 mm 2 mps 730 mmHg 33%
    17:00 +19°C° 0 mm 2 mps 730 mmHg 38%
    18:00 +18°C° 0 mm 1 mps 730 mmHg 43%
    19:00 +15°C° 0 mm 1 mps 729 mmHg 48%
    20:00 +14°C° 0 mm 1 mps 729 mmHg 50%
    21:00 +13°C° 0 mm 1 mps 729 mmHg 52%
    22:00 +13°C° 0 mm 1 mps 729 mmHg 54%
    23:00 +12°C° 0 mm 1 mps 729 mmHg 55%

    23 April, Monday

    Time Temperature Precipitation Wind Pressure Humidity
    00:00 +12°C° 0 mm 2 mps 728 mmHg 56%
    01:00 +12°C° 0 mm 2 mps 728 mmHg 57%
    02:00 +12°C° 0 mm 2 mps 728 mmHg 59%
    03:00 +12°C° 0 mm 2 mps 727 mmHg 61%
    04:00 +12°C° 0 mm 2 mps 727 mmHg 63%
    05:00 +13°C° 0.1 mm 2 mps 726 mmHg 65%
    06:00 +14°C° 0.1 mm 2 mps 726 mmHg 66%
    07:00 +16°C° 0.1 mm 3 mps 726 mmHg 68%
    08:00 +18°C° 0.1 mm 3 mps 726 mmHg 65%
    09:00 +19°C° 0.1 mm 4 mps 726 mmHg 62%
    10:00 +21°C° 0.1 mm 5 mps 726 mmHg 59%
    11:00 +22°C° 0.3 mm 5 mps 725 mmHg 55%
    12:00 +23°C° 0.3 mm 6 mps 725 mmHg 52%
    13:00 +23°C° 0.3 mm 6 mps 725 mmHg 49%
    14:00 +22°C° 0.6 mm 6 mps 724 mmHg 52%
    15:00 +21°C° 0.6 mm 6 mps 724 mmHg 56%
    16:00 +21°C° 0.6 mm 6 mps 724 mmHg 60%
    17:00 +19°C° 0.3 mm 5 mps 724 mmHg 65%
    18:00 +17°C° 0.3 mm 4 mps 724 mmHg 71%
    19:00 +15°C° 0.3 mm 4 mps 724 mmHg 77%
    20:00 +14°C° 0 mm 4 mps 725 mmHg 78%
    21:00 +13°C° 0 mm 4 mps 725 mmHg 79%
    22:00 +12°C° 0 mm 4 mps 726 mmHg 80%
    23:00 +11°C° 0 mm 4 mps 726 mmHg 80%

    24 April, Tuesday

    Time Temperature Precipitation Wind Pressure Humidity
    00:00 +11°C° 0 mm 3 mps 726 mmHg 80%
    01:00 +10°C° 0 mm 3 mps 726 mmHg 81%
    02:00 +10°C° 0 mm 3 mps 726 mmHg 82%
    03:00 +9°C° 0 mm 3 mps 726 mmHg 82%
    04:00 +8°C° 0 mm 3 mps 726 mmHg 83%
    05:00 +8°C° 0 mm 4 mps 726 mmHg 78%
    06:00 +9°C° 0 mm 5 mps 726 mmHg 74%
    07:00 +10°C° 0 mm 5 mps 726 mmHg 69%
    08:00 +11°C° 0.2 mm 6 mps 725 mmHg 70%
    09:00 +11°C° 0.2 mm 6 mps 725 mmHg 72%
    10:00 +12°C° 0.2 mm 7 mps 725 mmHg 73%
    11:00 +12°C° 0.7 mm 7 mps 725 mmHg 74%
    12:00 +12°C° 0.7 mm 7 mps 725 mmHg 74%
    13:00 +12°C° 0.7 mm 7 mps 725 mmHg 75%
    14:00 +12°C° 0.3 mm 7 mps 725 mmHg 70%
    15:00 +12°C° 0.3 mm 7 mps 726 mmHg 65%
    16:00 +12°C° 0.3 mm 7 mps 726 mmHg 59%
    17:00 +12°C° 0.1 mm 5 mps 726 mmHg 63%
    18:00 +11°C° 0.1 mm 4 mps 727 mmHg 67%
    19:00 +10°C° 0.1 mm 3 mps 727 mmHg 71%
    20:00 +10°C° 0 mm 3 mps 727 mmHg 74%
    21:00 +9°C° 0 mm 3 mps 728 mmHg 77%
    22:00 +8°C° 0 mm 2 mps 728 mmHg 79%
    23:00 +8°C° 0 mm 2 mps 728 mmHg 80%
    Show more